SL-3 R/B, 11963

Orbit data source: Space-Track

SL-3 R/B, 11963 is space debris in LEO originally from a launch on Tue, 09 Sep 1980 UTC launched from the Plesetsk Missile And Space Complex (PKMTR). Debris objects in space refer to the collection of defunct objects orbiting the Earth. Examples of debris include non-operational satellites, rocket bodies, and fragments generated from explosions, collisions, or faulty payload assembly.

Loading next visibility...
Identifier
11963, 1980-073B
Orbit
LEO
Last TLE update
15 hours ago
Origin
Manufacturer
Progress
Mission
Spacecraft
Bus & Motor
BLOK-E, Unknown motor
Mass
1,440 kg wet, 1,440 kg dry
Launch date (UTC)
1980-09-09 (45 years ago)
Launch vehicle
Unknown
Launch site
Plesetsk Missile And Space Complex (PKMTR)
Object type
Payload
Rocket body
Debris
Shape & HBR
Cyl, 3.8 m
Radar Cross Section
10.414 m², Large (>1 m²)

Expand to show TLE details & history

TLE from 15 hours ago
0 SL-3 R/B
1 11963U 80073B   25183.95350086  .00000318  00000-0  16819-3 0  9993
2 11963  81.2765 156.4184 0075735  41.5737 319.1158 14.10104699304194
Epoch: 2025-07-02T22:53Z
TLE epoch observation values (Epoch: 2025-07-02T22:53:02.474Z)
Latitude
-0.00003°
Longitude
-108.06912°
Altitude
820.647 km
Speed
7.464 km/s
True Right ascension
10h 25m 40s
True Declination
0° 00' 00"
Sunlit
Object was in daylight at epoch
Visualization orbit readout
Latitude
-34.95509°
Longitude
77.46465°
Altitude
926.814 km
Speed
7.359 km/s
Apparent Right ascension
19h 08m 46s
Apparent Declination
-66° 02' 54"
Sunlit
Object is in full shadow
Visualization observer readout
Local Sidereal Time
01:18:09
Azimuth
210.44° SW
Elevation
-36.809°
Doppler factor
1
Orbital elements
Apogee altitude
910.975 km
Perigee altitude
801.397 km
Semi-major axis
7,234.323 km
Eccentricity
0.00757
Inclination
81.2765°
RAAN
156.4184°
Arg. of periapsis
41.5737°
True anomaly
Unknown
Mean anomaly
319.1158°
Eccentric anomaly
Unknown
Mean motion
3.52733 °/min
Orbital period
102.06 mins
BSTAR
0.00016819
Loading maneuver chart data...
Loading SW <> Apogee altitude chart data...
Loading historical data...
Loading historical data...
Loading historical data...
Loading historical data...
Loading historical data...
Loading historical data...
Loading historical data...

SL-3 R/B Visibility forecast

Observer location: undefined°, undefined°

Span
Click to sort rows by Start time (UTC) header in descending order
Start Az.
Max El. time (UTC)
Max El. Az.
Max El.
End time (UTC)
End Az.
9 mins2025-07-03 22:50:18.668Z181.006° SSW2025-07-03 22:54:18.668Z142.415° SSE43.426°2025-07-03 22:59:18.668Z13.095° NNE
9 mins2025-07-04 09:31:18.668Z4.28° NNE2025-07-04 09:35:18.668Z69.602° E39.261°2025-07-04 09:40:18.668Z153.126° SSE
5 mins2025-07-04 11:16:18.668Z296.883° NW2025-07-04 11:18:18.668Z271.043° WNW17.647°2025-07-04 11:21:18.668Z236.732° WSW
|